Home   Weather   Sawai Madhopur   Past weeks

Flag for India Past Weather in Sawai Madhopur, Rajasthan, India — Yesterday and Last 2 Weeks

Now
81 °F

Fog.


Feels Like: 88 °F
Forecast: 79 / 89 °F
Wind: No wind

Location: Jaipur / Sanganer

Current Time: Aug 31, 2016 at 12:45:12 AM

Latest Report: Aug 30, 2016 at 11:30 PM


Visibility: 2 mi

Pressure: 29.68 "Hg

Humidity: 94%

Dew Point: 79 °F

Location of Sawai MadhopurLocation

Past Weather in Sawai Madhopur — Graph

°F

Sawai Madhopur Temperature Yesterday

Maximum temperature yesterday: 88 °F (at 11:30 AM)
Minimum temperature yesterday: 79 °F (at 1:00 AM)
Average temperature yesterday: 82 °F

High & Low Weather Summary for the Past Weeks

 TemperatureHumidityPressure
High91 °F (Aug 26, 4:30 PM)100% (Aug 20, 6:30 PM)29.92 "Hg (Aug 20, 6:30 PM)
Low73 °F (Aug 28, 8:00 AM)59% (Aug 16, 4:00 PM)29.50 "Hg (Aug 20, 3:00 PM)
Average82 °F84%29.65 "Hg
* Reported Aug 15 11:30 PM — Aug 30 11:30 PM, Sawai Madhopur, Weather by CustomWeather, © 2016

Note: Actual official high and low records may vary slightly from our data, if they occured in-between our weather recording intervals... More about our weather records

Advertising

Sawai Madhopur Weather History for the Previous 24 Hours

Scroll right to see more
 ConditionsComfort  
Time TempWeatherWind HumidityBarometerVisibility
11:30 PM
Tue, Aug 30
81 °FFog.No wind94%29.68 "Hg2 mi
11:00 PM81 °FPartly cloudy.No wind94%29.68 "Hg2 mi
10:30 PM81 °FPartly cloudy.1 mph94%29.68 "Hg2 mi
10:00 PM81 °FPartly cloudy.5 mph94%29.68 "Hg2 mi
9:30 PM81 °FPartly cloudy.No wind94%29.65 "Hg2 mi
9:00 PM81 °FPartly cloudy.2 mph94%29.68 "Hg2 mi
8:30 PM82 °FPartly cloudy.No wind89%29.65 "Hg2 mi
8:00 PM81 °FThunderstorms. Partly cloudy.No wind94%29.65 "Hg2 mi
7:30 PM81 °FPartly cloudy.No wind94%29.65 "Hg2 mi
7:00 PM82 °FThunderstorms. Broken clouds.No wind89%29.62 "Hg2 mi
6:00 PM82 °FThunderstorms. Broken clouds.6 mph84%29.59 "Hg2 mi
5:30 PM82 °FThunderstorms. Broken clouds.5 mph89%29.59 "Hg2 mi
4:30 PM84 °FThunderstorms. Broken clouds.3 mph89%29.59 "Hg1 mi
4:00 PM82 °FLight rain. Broken clouds.3 mph89%29.59 "Hg1 mi
3:00 PM84 °FLight rain. Broken clouds.7 mph79%29.59 "Hg1 mi
2:30 PM86 °FBroken clouds.6 mph75%29.62 "Hg2 mi
2:00 PM86 °FBroken clouds.8 mph79%29.62 "Hg2 mi
1:30 PM88 °FBroken clouds.7 mph70%29.65 "Hg2 mi
1:00 PM88 °FBroken clouds.7 mph75%29.65 "Hg2 mi
12:30 PM88 °FBroken clouds.5 mph70%29.68 "Hg2 mi
12:00 PM86 °FBroken clouds.6 mph75%29.68 "Hg2 mi
11:30 AM88 °FBroken clouds.6 mph75%29.68 "Hg2 mi
10:00 AM84 °FFog.6 mph79%29.71 "Hg2 mi
9:30 AM82 °FFog.6 mph84%29.71 "Hg2 mi
9:00 AM82 °FFog.7 mph84%29.71 "Hg2 mi
8:30 AM82 °FFog.1 mph89%29.68 "Hg2 mi
8:00 AM82 °FFog.2 mph89%29.65 "Hg2 mi
7:00 AM79 °FFog.1 mph100%29.65 "Hg2 mi
6:00 AM79 °FPartly cloudy.No wind94%29.65 "Hg3 mi
5:30 AM79 °FPartly cloudy.1 mph94%29.65 "Hg3 mi
5:00 AM79 °FPartly cloudy.No wind94%29.65 "Hg3 mi
3:00 AM79 °FPartly cloudy.No wind94%29.65 "Hg3 mi
2:00 AM79 °FPartly cloudy.No wind89%29.65 "Hg3 mi
1:00 AM79 °FPartly cloudy.No wind94%29.65 "Hg3 mi
12:00 AM81 °FPartly cloudy.1 mph84%29.68 "Hg3 mi
Weather by CustomWeather, © 2016

See weather overviewHow to use our weather pages